Overview Statistics Trail Chart Weather Telemetry Raw packets
 

This is the latest recevied weather packets stored in our database for station/object ac2ev. If no packets are shown the sender has not sent any weather packets the latest 10 day(s).

<< 105 106 107 108 109 110 111 >>
Time Temp. Humidity Pressure Rain* Wind** Luminosity Snow
1787853341 25.56° C 67% 1010.9 hPa 0 mm - - -
1787853040 26.67° C 65% 1011 hPa 0 mm - - -
1787852741 27.78° C 63% 1010.9 hPa 0 mm - - -
1787852438 27.22° C 60% 1010.7 hPa 0 mm - - -
1787852139 27.22° C 62% 1010.6 hPa 0 mm - - -
1787851836 27.22° C 62% 1010.6 hPa 0 mm - - -
1787851537 26.67° C 63% 1010.6 hPa 0 mm - - -
1787851235 26.67° C 62% 1010.6 hPa 0 mm - - -
1787850934 26.67° C 64% 1010.7 hPa 0 mm - - -
1787850635 26.67° C 64% 1010.6 hPa 0 mm - - -
1787850333 26.67° C 63% 1010.6 hPa 0 mm - - -
1787850033 26.67° C 62% 1010.6 hPa 0 mm - - -
1787849732 27.22° C 66% 1010.6 hPa 0 mm - - -
1787849432 26.67° C 65% 1010.6 hPa 0 mm - - -
1787849133 26.67° C 66% 1010.6 hPa 0 mm - - -
1787848832 26.67° C 66% 1010.7 hPa 0 mm - - -
1787848532 26.67° C 66% 1010.7 hPa 0 mm - - -
1787848230 26.11° C 66% 1010.7 hPa 0 mm - - -
1787847930 26.11° C 67% 1010.8 hPa 0 mm - - -
1787847630 26.11° C 68% 1010.8 hPa 0 mm - - -
1787847377 26.11° C 68% 1010.7 hPa 0 mm - - -
1787847019 26.11° C 70% 1010.7 hPa 0 mm - - -
1787846713 26.11° C 69% 1010.7 hPa 0 mm - - -
1787846406 26.11° C 70% 1010.8 hPa 0 mm - - -
1787846104 26.11° C 69% 1010.9 hPa 0 mm - - -

* Rain latest hour (hover to see other rain measurements)
** Current wind speed in m/s (hover to see current wind gust speed)